Location: *
(50.2903°S, 172.5375°W)
Time: 02:25:29
(UTC+00:00)

SJ 16-02 - Pass Details

Date: 17 November 2019
Orbit: 606 x 616 km, 75.0° (Epoch: 12 December)

Event Time Altitude Azimuth Distance (km) Brightness Sun altitude
Rises 14:23:54 0° 208° (SSW) 2,934 5.1 -9.2°
Reaches altitude 10° 14:26:15 10° 215° (SW) 2,019 4.1 -8.9°
Maximum altitude 14:30:29 40° 284° (WNW) 922 1.9 -8.5°
Drops below altitude 10° 14:34:39 10° 353° (N) 1,988 3.5 -8.0°
Sets 14:36:58 0° 0° (N) 2,883 4.4 -7.7°
